Theta_e
312 311 311 311 311 312 313 313 312 312 312 311 311 312 312 312 311 301 297 305 306 313 315 300 302 305 306 306 309 310 298 295 298 299 302 308 306 307 312 309 315 324 321 325 330
310 310 310 311 312 312 312 312 312 311 311 311 311 312 311 312 300 295 307 310 311 315 297 295 294 300 299 302 305 304 297 299 304 304 303 305 306 307 306 306 312 321 325 328 329
309 309 311 312 312 312 311 311 311 310 310 311 312 311 311 309 292 293 310 309 310 308 297 297 298 301 297 299 301 304 300 304 306 308 309 307 306 308 305 302 308 317 322 324 324
309 310 311 311 311 311 310 310 309 310 310 310 311 312 314 298 281 296 310 309 311 301 296 295 293 293 294 293 300 296 305 308 308 310 308 305 308 306 304 305 315 319 325 324 323
309 310 310 311 310 310 310 309 308 310 308 310 310 312 301 289 290 300 309 304 299 297 294 292 290 290 289 293 296 293 297 303 308 308 307 308 306 305 305 308 314 325 325 322 323
309 309 310 310 309 309 309 308 307 308 308 309 310 311 291 283 297 298 298 299 297 295 293 292 289 290 291 292 292 296 296 300 302 302 305 304 305 305 305 307 312 324 323 322 323
309 310 310 310 309 308 309 307 306 307 308 308 310 304 290 288 296 297 298 296 297 296 292 293 292 289 291 290 295 294 292 296 298 301 303 306 301 301 307 308 306 314 321 322 322
310 310 311 310 309 308 308 308 306 307 310 309 310 296 286 299 297 297 297 296 298 297 295 295 295 291 289 293 291 288 289 286 295 300 302 304 295 303 307 306 306 305 309 321 322
311 311 311 310 307 309 308 309 307 306 311 308 294 289 285 301 293 297 295 294 295 296 295 298 294 288 288 283 281 282 279 282 286 295 295 301 295 304 308 305 306 307 304 308 319
310 310 311 309 306 308 308 309 304 302 300 298 296 284 288 289 293 296 296 296 292 291 290 289 286 282 280 278 272 275 277 280 280 287 290 289 291 301 305 304 302 302 305 304 308
310 310 310 309 306 306 298 293 288 286 290 286 287 287 290 293 295 292 296 292 292 287 280 284 278 275 278 280 281 279 277 277 281 285 285 286 287 291 294 294 294 298 302 304 309
310 310 309 307 305 304 295 290 289 290 284 290 290 291 292 292 286 290 295 286 285 279 282 279 275 281 283 283 281 279 277 276 281 286 283 282 282 286 290 293 293 293 295 298 302
310 309 307 306 304 297 293 292 298 295 282 285 290 289 288 290 286 287 291 287 282 280 279 275 280 284 282 280 279 278 277 278 279 283 282 280 279 283 288 292 293 295 296 298 299
310 308 306 308 297 294 291 297 297 294 271 277 284 286 289 289 284 292 292 288 284 279 279 278 283 282 280 279 280 276 282 281 280 278 273 280 270 279 284 285 288 292 294 295 300
309 306 305 306 294 291 294 297 294 289 263 280 282 291 289 284 284 286 291 287 280 280 279 276 279 278 278 279 282 278 283 281 280 277 276 277 271 275 283 283 286 288 292 295 298
309 305 304 299 295 295 296 294 289 272 263 270 282 281 281 283 283 286 285 287 286 281 280 279 284 282 280 284 283 284 281 280 279 276 265 274 276 272 278 283 285 289 292 295 297
305 303 300 299 292 295 294 287 272 266 274 269 270 280 279 278 279 280 279 277 275 268 265 276 278 282 285 280 283 282 277 266 262 260 264 275 273 276 282 285 287 287 290 295 297
304 302 300 298 296 293 289 276 265 265 264 279 278 278 275 277 276 277 276 273 280 275 267 266 265 278 280 278 277 277 275 268 261 266 269 276 271 276 284 286 289 292 292 293 294
304 295 294 294 296 291 279 266 269 269 278 276 277 270 264 276 275 275 273 271 277 275 265 264 269 279 280 280 281 276 268 278 268 272 267 271 274 280 284 284 286 289 290 291 293
297 293 292 295 294 286 272 273 270 279 280 278 271 273 262 263 270 269 269 274 276 280 276 271 267 276 279 281 280 280 281 272 273 262 259 270 271 272 278 281 283 284 286 288 291
296 285 291 294 291 277 267 268 272 280 281 278 276 271 272 269 269 265 266 273 279 279 279 271 273 272 274 270 274 275 272 272 272 274 268 267 269 278 279 280 281 283 285 287 288
292 278 290 291 275 277 272 270 281 278 279 279 278 278 275 275 268 270 267 274 282 282 277 277 268 270 270 278 279 278 275 274 265 266 271 270 269 282 283 284 281 282 284 286 288
286 283 289 288 269 266 270 275 278 277 279 277 276 279 279 275 267 274 275 281 282 279 274 274 266 262 265 269 274 270 277 276 274 274 268 266 268 280 280 280 282 282 283 285 286
282 274 283 280 280 277 268 269 271 280 279 280 277 279 278 276 277 268 276 280 282 281 286 283 274 269 264 267 265 268 272 274 268 268 268 269 271 275 277 278 280 281 283 284 286
285 277 277 275 277 269 275 276 275 274 276 280 278 277 274 267 274 274 276 277 280 283 281 277 268 269 273 274 273 272 271 272 270 272 268 271 271 275 277 278 279 281 283 283 284
283 279 274 277 274 277 275 273 276 276 276 273 274 278 277 271 274 273 275 275 275 277 276 276 269 269 270 274 274 271 273 273 274 274 273 273 272 279 280 281 280 281 282 282 283
290 285 282 276 273 276 273 274 278 279 279 279 278 277 276 278 281 280 280 279 279 276 276 273 266 266 265 272 272 264 270 269 273 276 275 270 275 280 279 279 281 282 283 284 284
Wind_Speed
18 17 18 18 19 18 19 18 18 20 20 19 20 20 20 19 7 20 17 13 18 23 22 15 10 11 7 4 5 2 2 6 8 7 14 12 6 2 6 4 5 4 2 5 16
15 16 18 18 18 17 19 19 19 18 19 19 19 20 19 17 2 22 19 22 23 23 16 13 13 12 5 5 4 6 6 9 7 9 11 9 5 6 3 4 4 5 7 9 14
14 15 15 20 19 20 19 20 21 20 20 21 22 22 20 9 6 8 24 25 24 19 11 10 7 5 3 4 4 6 13 7 9 13 18 15 5 4 5 3 6 9 14 10 8
15 16 18 20 18 18 18 18 15 14 15 15 20 22 22 3 7 7 21 23 23 14 17 12 13 9 4 3 5 8 7 13 14 10 7 5 5 4 2 6 4 12 18 13 14
15 17 17 16 17 19 19 16 13 15 18 17 18 23 7 10 3 9 16 15 10 14 14 11 8 8 10 9 11 6 11 13 10 9 10 8 10 6 6 8 2 15 15 13 13
14 15 16 16 16 17 19 16 16 16 18 16 16 18 8 13 6 8 10 9 9 11 11 8 6 7 7 9 6 14 14 9 8 9 6 8 9 4 4 4 7 15 14 15 15
11 12 14 16 17 18 19 15 14 15 15 14 12 5 7 6 6 7 7 6 7 6 6 4 6 4 7 11 9 13 10 8 6 4 5 5 10 11 10 8 5 9 12 13 15
11 13 15 16 17 19 19 17 12 14 18 13 12 2 3 1 6 10 6 14 9 4 3 7 6 6 4 7 8 6 5 3 4 4 6 3 13 4 9 8 11 7 9 15 17
12 12 13 16 19 20 19 17 11 13 12 10 6 7 5 11 12 11 5 10 12 6 5 7 2 3 6 2 4 5 5 6 8 7 10 14 5 10 12 9 15 15 9 10 14
12 12 13 17 19 21 18 9 7 10 7 4 7 6 6 7 8 8 11 10 6 9 9 7 5 4 7 7 3 3 4 6 6 9 14 17 17 10 11 6 6 8 9 9 10
10 12 13 14 15 22 10 5 8 8 8 6 3 3 6 10 4 9 9 8 8 8 10 8 7 5 7 5 11 8 5 6 8 11 11 5 7 7 9 11 7 8 8 9 7
10 10 11 12 10 15 6 7 3 3 2 0 2 1 2 5 4 13 10 9 7 6 10 9 4 7 9 10 10 10 10 7 9 7 8 9 15 9 9 10 10 9 11 12 10
8 9 11 11 7 5 8 4 1 3 2 2 1 3 5 4 4 8 7 7 5 9 7 1 7 9 11 12 14 8 9 14 14 16 5 8 9 6 7 7 8 13 10 11 11
5 7 10 15 5 1 3 4 3 2 7 8 7 4 6 1 1 3 3 4 6 6 8 4 7 9 10 11 8 9 8 12 14 13 6 8 9 3 2 7 8 12 16 13 15
3 4 8 10 2 3 3 4 3 4 7 5 6 5 7 5 5 3 4 4 2 3 4 8 9 10 10 6 9 7 11 12 12 11 11 7 4 8 8 8 13 17 14 17 15
3 4 8 3 3 2 4 5 4 10 4 6 5 7 7 5 6 4 5 2 3 4 2 9 7 4 5 8 10 11 8 14 10 3 2 7 7 5 4 7 6 7 6 9 14
7 7 4 2 0 5 4 3 8 8 4 8 3 4 4 5 6 6 6 8 3 8 6 7 7 0 2 6 7 5 6 5 8 5 6 5 8 10 20 18 15 15 9 12 14
9 5 6 3 4 5 4 8 7 4 6 3 2 1 3 5 3 6 5 4 4 4 2 2 10 4 4 2 7 8 5 3 5 7 10 8 6 8 10 16 5 7 6 9 10
10 2 2 3 5 3 7 6 9 7 4 1 4 6 6 3 1 7 3 3 1 3 4 4 6 6 14 5 1 6 2 5 3 8 3 6 9 10 11 8 9 9 10 8 7
3 3 2 5 5 5 7 5 4 1 4 1 4 3 2 5 4 5 2 5 1 3 3 4 9 6 6 5 7 6 4 5 1 2 5 6 6 8 11 11 12 15 14 11 8
2 3 3 2 4 7 4 7 4 4 1 5 5 2 5 3 5 2 5 7 3 5 5 3 5 8 6 2 9 7 4 4 2 5 7 7 6 8 9 3 9 10 13 14 11
2 1 3 2 6 2 2 6 2 2 1 1 2 4 6 6 4 4 7 8 7 5 4 7 4 6 12 18 13 14 13 8 3 8 6 8 17 20 18 10 7 12 15 10 11
3 2 3 2 5 2 3 4 2 2 4 4 5 6 5 5 1 7 5 6 7 5 5 3 3 7 11 9 6 4 2 5 11 9 17 11 21 4 11 19 17 17 15 16 10
4 2 1 3 2 6 7 4 3 3 3 3 4 2 2 4 6 5 5 5 7 7 11 4 5 9 11 13 3 16 19 15 6 10 14 24 27 32 29 22 21 12 12 13 14
4 5 4 5 7 4 4 9 4 3 2 3 3 7 7 3 3 7 7 7 6 9 8 7 8 7 16 18 17 23 26 22 20 23 19 33 21 32 25 24 22 20 20 22 19
6 5 2 1 1 6 5 6 10 4 8 6 6 7 8 7 11 7 5 3 7 3 5 1 8 4 15 18 19 27 27 23 25 26 26 30 34 29 27 23 20 19 18 17 18
3 3 6 4 2 4 7 9 10 10 7 6 11 3 8 18 11 11 7 7 9 4 1 3 2 5 9 8 16 15 14 8 6 10 10 13 23 20 19 17 16 13 8 8 9
Wind_Direction
31 27 21 25 21 16 12 9 9 3 358 356 351 347 348 355 25 44 40 344 343 336 328 318 330 342 318 217 213 291 177 226 230 235 260 290 271 279 147 121 44 30 77 185 144
27 24 20 20 15 12 10 3 4 1 358 355 350 340 342 348 54 41 3 353 346 339 337 334 321 321 322 278 234 180 186 216 217 243 264 274 265 203 139 194 108 66 59 116 142
24 24 16 23 10 10 3 1 357 2 4 352 343 336 334 335 67 353 356 351 346 342 333 321 277 268 234 282 250 219 232 229 240 237 262 275 305 293 165 203 192 184 165 155 159
19 21 17 19 6 3 4 359 356 8 360 351 339 331 337 61 61 307 354 345 341 345 354 357 335 347 292 255 286 268 237 227 255 261 279 292 311 274 200 228 141 172 168 153 169
17 17 14 12 6 4 357 353 7 8 359 354 343 338 19 49 42 309 344 335 337 357 1 350 20 350 1 314 327 284 281 274 266 266 269 282 262 242 264 272 56 131 153 166 172
16 11 6 3 8 3 357 3 6 360 349 350 341 347 50 67 284 331 343 336 1 351 341 354 341 315 287 310 295 313 305 298 302 307 297 291 270 198 272 294 138 151 170 170 180
10 4 3 5 5 359 359 5 357 346 337 336 329 4 56 67 328 341 349 335 312 314 315 314 304 343 332 308 322 301 303 314 286 291 275 7 271 239 237 271 247 195 177 178 188
359 359 1 360 2 3 358 353 336 341 321 308 312 61 94 339 337 2 351 349 305 315 302 292 271 276 205 261 316 310 304 331 335 270 246 200 245 285 236 244 268 225 218 187 186
1 358 1 4 3 1 351 335 328 328 323 305 30 103 27 340 353 321 18 325 303 316 291 285 350 254 316 279 351 310 265 278 296 261 265 232 244 221 253 251 244 253 220 227 200
2 1 6 9 4 358 347 337 327 342 6 311 35 40 18 331 317 330 341 346 341 354 355 357 28 17 10 357 270 289 332 316 321 313 338 280 268 258 268 258 257 284 273 230 217
2 2 7 9 6 2 1 20 18 355 19 96 263 128 292 314 327 338 342 343 9 40 16 338 46 9 329 317 313 289 265 281 285 289 305 299 337 326 330 327 349 326 310 321 279
358 2 4 2 6 18 27 70 106 212 339 55 35 259 331 330 346 349 13 30 21 17 9 12 37 333 321 333 334 325 308 296 275 272 326 295 296 277 285 290 283 284 293 294 299
351 359 355 351 356 49 78 83 291 6 163 8 87 357 317 5 359 341 24 354 1 11 6 172 270 342 4 340 331 325 349 345 328 320 241 265 270 235 254 257 279 283 246 261 271
352 4 351 340 47 158 59 339 3 37 75 308 355 359 324 314 26 349 25 38 354 348 341 314 333 351 349 326 328 320 357 348 333 346 297 32 289 281 252 298 280 274 284 262 258
5 9 354 19 248 52 301 336 355 57 50 303 324 299 312 72 267 298 328 30 302 283 65 264 299 315 321 283 343 273 334 321 300 296 318 328 282 266 236 248 249 253 252 264 255
114 17 337 26 48 335 328 341 54 43 283 326 344 356 6 346 346 307 353 338 252 328 257 253 263 239 232 306 277 277 320 302 279 230 312 250 248 279 227 230 278 283 302 281 253
108 61 58 23 320 323 352 40 37 103 330 299 299 350 2 316 324 30 330 346 32 24 333 318 323 303 45 325 341 36 358 326 351 1 232 5 324 257 290 295 300 293 304 16 15
125 77 56 65 339 2 53 45 74 233 228 276 242 350 44 2 315 336 329 11 25 66 338 23 335 356 356 302 267 307 181 217 277 306 306 298 258 263 302 295 348 42 40 29 21
134 88 82 341 353 37 66 54 198 203 187 274 356 54 320 355 354 2 328 212 129 115 140 349 269 315 315 292 19 307 353 228 244 261 264 237 275 291 285 30 4 11 14 359 1
151 129 63 327 9 60 74 228 185 185 131 128 153 142 221 267 27 34 342 249 231 123 133 259 296 263 291 313 277 187 262 315 341 297 259 244 255 249 307 353 8 357 346 339 326
118 54 250 14 74 54 157 222 236 237 147 170 190 203 210 234 158 266 241 287 204 174 142 180 207 284 21 239 286 306 323 332 343 259 293 286 253 234 253 36 340 338 330 333 314
127 335 292 44 64 70 179 189 232 219 9 279 148 186 194 184 213 237 225 212 207 175 200 214 211 282 262 277 266 254 275 269 170 283 282 295 264 259 269 298 332 314 325 324 321
131 176 311 64 140 236 318 316 264 223 222 177 212 205 190 207 248 206 224 245 206 177 191 239 289 322 331 348 353 78 266 316 307 280 262 273 269 13 300 303 298 311 313 302 313
109 141 297 24 323 143 133 228 277 213 267 206 206 44 154 241 220 256 240 254 211 195 212 234 200 197 237 247 241 287 278 275 207 261 280 247 278 284 277 286 301 295 289 289 291
132 229 176 187 227 179 142 154 144 252 242 254 261 197 176 215 238 228 246 274 252 228 225 177 240 226 252 269 270 271 273 270 253 253 248 275 266 267 283 290 289 291 285 285 280
147 151 3 173 348 119 197 213 171 181 153 250 226 212 189 203 198 214 213 162 238 300 165 202 270 269 276 268 264 274 272 266 261 262 254 260 270 270 275 278 276 276 277 271 272
151 105 113 183 166 131 216 197 193 151 209 193 212 183 211 234 242 252 240 234 243 248 206 238 155 353 272 335 316 291 263 230 234 232 236 249 251 276 275 271 274 277 288 297 270